Change the Weather History Date:

Friday, May 10, 2013

  Actual Average Record
Temperature  
Mean Temperature 68 °F 61 °F  
Max Temperature 83 °F 72 °F 96 °F (1896)
Min Temperature 52 °F 50 °F 33 °F (1966)
Degree Days  
Heating Degree Days 0 5  
Month to date heating degree days 64 62  
Since 1 July heating degree days 4414 4677  
Cooling Degree Days 3 1  
Month to date cooling degree days 3 10  
Year to date cooling degree days 29 24  
Growing Degree Days 17 (Base 50)    
Moisture  
Dew Point 57 °F    
Average Humidity 67    
Maximum Humidity 100    
Minimum Humidity 34    
Precipitation  
Precipitation 0.62 in 0.12 in 1.15 in (1919)
Month to date precipitation 1.62 1.18  
Year to date precipitation 12.05 14.22  
Snow  
Snow 0.00 in 0.00 in - ()
Month to date snowfall 0.0 0.0  
Since 1 July snowfall 8.0 20.1  
Snow Depth 0.00 in    
Sea Level Pressure  
Sea Level Pressure 29.95 in    
Wind  
Wind Speed 4 mph (SW)    
Max Wind Speed 25 mph    
Max Gust Speed 31 mph    
Visibility 8 miles    
Events Fog , Rain , Thunderstorm    
T = Trace of Precipitation, MM = Missing Value Source: NWS Daily Summary

Daily Weather History Graph

Daily Weather History Graph

Search for Another Location

Airport or City:

Trip Planner

Search our weather history database for the weather conditions in past years. The results will help you decide how hot, cold, wet, or windy it might be!

Date:

Astronomy

May. 10, 2013 Rise Set
Actual Time 5:58 AM EDT 8:08 PM EDT
Civil Twilight 5:28 AM EDT 8:38 PM EDT
Nautical Twilight 4:51 AM EDT 9:15 PM EDT
Astronomical Twilight 4:12 AM EDT 9:55 PM EDT
Moon 6:20 AM EDT (5/10) 8:56 PM EDT (5/10)
Length of Visible Light 15h 10m
Length of Day
14h 10m
New Moon, 0% of the Moon is Illuminated
May 10
New Moon
May 18
First Quarter
May 25
Full
May 31
Last Quarter
Jun 8
New

Hourly Weather History & Observations

Time (EDT) Temp. Heat Index Dew Point Humidity Pressure Visibility Wind Dir Wind Speed Gust Speed Precip Events Conditions
12:54 AM 59.0 °F - 57.0 °F 93% 30.00 in 10.0 mi West 3.5 mph - N/A   Mostly Cloudy
1:54 AM 57.2 °F - 57.2 °F 100% 29.99 in 9.0 mi Calm Calm - N/A   Mostly Cloudy
2:54 AM 57.0 °F - 55.0 °F 93% 29.99 in 8.0 mi Calm Calm - N/A   Scattered Clouds
3:54 AM 55.9 °F - 54.0 °F 93% 29.99 in 9.0 mi Calm Calm - N/A   Partly Cloudy
4:54 AM 53.1 °F - 52.0 °F 96% 29.99 in 7.0 mi West 3.5 mph - N/A   Partly Cloudy
5:54 AM 53.1 °F - 52.0 °F 96% 29.99 in 10.0 mi Calm Calm - N/A   Scattered Clouds
6:54 AM 55.9 °F - 54.0 °F 93% 30.00 in 10.0 mi Calm Calm - N/A Fog Shallow Fog
7:54 AM 62.6 °F - 55.4 °F 77% 30.00 in 10.0 mi Calm Calm - N/A   Mostly Cloudy
8:54 AM 69.8 °F - 55.4 °F 60% 30.01 in 10.0 mi NNW 4.6 mph - N/A   Mostly Cloudy
9:54 AM 73.9 °F - 55.9 °F 53% 30.01 in 10.0 mi Calm Calm - N/A   Mostly Cloudy
10:54 AM 75.0 °F - 54.0 °F 48% 30.00 in 10.0 mi Calm Calm - N/A   Mostly Cloudy
11:54 AM 78.1 °F - 55.0 °F 45% 29.98 in 10.0 mi SW 3.5 mph - N/A   Scattered Clouds
12:54 PM 80.6 °F 80.3 °F 53.6 °F 39% 29.97 in 10.0 mi SSW 6.9 mph - N/A   Mostly Cloudy
1:54 PM 82.9 °F 82.0 °F 55.0 °F 38% 29.94 in 10.0 mi WSW 5.8 mph - N/A   Overcast
2:54 PM 82.9 °F - 52.0 °F 34% 29.93 in 10.0 mi Variable 5.8 mph - N/A   Mostly Cloudy
3:54 PM 82.0 °F 81.6 °F 55.9 °F 41% 29.91 in 10.0 mi SSE 9.2 mph - N/A   Mostly Cloudy
4:54 PM 81.0 °F 80.8 °F 55.9 °F 42% 29.90 in 10.0 mi SE 11.5 mph - N/A   Mostly Cloudy
5:54 PM 78.1 °F - 55.9 °F 46% 29.90 in 10.0 mi SSE 9.2 mph 16.1 mph N/A   Overcast
6:54 PM 75.9 °F - 55.0 °F 48% 29.88 in 10.0 mi SSE 8.1 mph - N/A   Overcast
7:54 PM 75.0 °F - 55.0 °F 50% 29.86 in 10.0 mi SSE 6.9 mph - N/A   Overcast
8:54 PM 73.0 °F - 57.0 °F 57% 29.87 in 10.0 mi SSE 4.6 mph - N/A   Overcast
9:54 PM 66.9 °F - 61.0 °F 81% 29.92 in 9.0 mi NW 12.7 mph 21.9 mph 0.00 in Rain , Thunderstorm Light Thunderstorms and Rain
10:29 PM 64.4 °F - 62.6 °F 94% 29.93 in 2.0 mi NW 10.4 mph - 0.11 in Rain , Thunderstorm Light Thunderstorms and Rain
10:47 PM 64.4 °F - 62.6 °F 94% 29.91 in 5.0 mi North 6.9 mph - 0.34 in Rain , Thunderstorm Light Thunderstorms and Rain
10:54 PM 64.0 °F - 62.1 °F 93% 29.90 in 8.0 mi North 3.5 mph - 0.34 in Rain , Thunderstorm Light Thunderstorms and Rain
10:59 PM 64.4 °F - 62.6 °F 94% 29.90 in 10.0 mi Calm Calm - 0.00 in Rain Light Rain
11:22 PM 64.4 °F - 62.6 °F 94% 29.93 in 2.0 mi West 8.1 mph - 0.07 in Rain , Thunderstorm Heavy Thunderstorms and Rain
11:33 PM 64.4 °F - 62.6 °F 94% 29.94 in 4.0 mi SW 5.8 mph - 0.21 in Rain , Thunderstorm Thunderstorms and Rain
11:48 PM 64.4 °F - 62.6 °F 94% 29.93 in 4.0 mi SSW 3.5 mph - 0.24 in Rain Rain
11:54 PM 64.0 °F - 63.0 °F 96% 29.93 in 4.0 mi Calm Calm - 0.26 in Rain Rain